sat.trackr.live / text

‹ back to catalog

STARLINK-5329

NORAD 56513 · 2023-065L

PAYLOAD ACTIVE UNKNOWN

§ Identity

Operator
Country
US
Launch date
2023-05-14
Launch site
AFETR
Launch vehicle
Mass (kg)
RCS (m²)

Purposes: comms

External: N2YO · Heavens-Above · Gunter

§ Orbital elements

Epoch: 2026-09-20T04:00:04.499136Z

Period
94.27 min
Inclination
43.0019°
Eccentricity
0.0001037
Mean motion
15.27579578 rev/d
Perigee alt
482.3 km
Apogee alt
483.8 km
Semi-major
6,861.2 km
B*
-3.2533e-5
RAAN
194.0764°
Arg perigee
261.2997°
Mean anomaly
98.7737°
Rev number
18,634

§ Raw data

STARLINK-53291 56513U 23065L   26263.16671874 -.00001157  00000+0 -32533-4 0  99902 56513  43.0019 194.0764 0001037 261.2997  98.7737 15.27579578186346

JSON: /api/v1/satellites/56513 · /tle

For live sub-satellite position, see the globe view (requires WebGL).

§ Visibility from observer

Set your observer location to see the next 7 days of passes ≥ 10°. The values pass through the URL so the page stays shareable.

No JS? Fill the form by hand. The geolocation button needs JavaScript.